{"data":{"norad_id":48948,"epoch":"2026-09-18T02:36:09.676512Z","epoch_age_seconds":224816,"freshness":"STALE","line1":"1 48948U 21059BX  26261.10844533  .00047316  00000+0  28185-3 0  9992","line2":"2 48948  97.6649 112.9853 0003005 357.5839   2.5411 15.77825614292465","mean_motion":15.77825614,"eccentricity":0.0003005,"inclination_deg":97.6649,"raan_deg":112.9853,"arg_perigee_deg":357.5839,"mean_anomaly_deg":2.5411,"bstar":0.00028185,"rev_number":29246,"period_min":91.264838599584,"perigee_km":334.58479115418,"apogee_km":338.62034963599,"semimajor_km":6714.7395703951,"source":"CELESTRAK","updated_at":"2026-09-20T09:00:47.449839Z"}}